Wind_Speed
23 23 23 23 24 24 24 25 24 24 24 25 25 25 25 25 25 25 26 26 27 27 26 25 25 26 27 28 28 28 27 29 30 30 30 29 27 26 25 27 31 33 33 28 23 22 21 17 14 13 13 12 12 12 12 12 13 13 13 13 13 15 16 19 21 20 19 20 21 21 22 24 25 25 26 26 26 27 27 28 28 27 27 28 28
24 23 23 23 24 24 24 24 24 24 25 26 26 26 27 26 25 26 27 27 28 29 28 27 27 28 29 30 31 31 31 32 33 32 31 31 31 31 30 30 31 32 33 30 24 22 20 17 15 15 14 13 13 13 13 13 14 14 13 13 14 16 18 19 21 21 17 17 19 21 23 24 25 25 26 28 28 28 28 28 28 28 29 30 30
24 24 24 24 24 24 24 24 25 25 26 26 26 27 27 27 26 27 29 29 29 29 29 29 30 30 31 32 33 34 34 35 35 34 32 31 32 34 34 33 32 32 33 30 25 21 19 18 17 17 16 14 13 14 14 15 15 14 13 14 15 16 18 19 20 20 17 15 17 20 23 25 26 26 27 28 28 28 29 28 27 27 28 30 30
24 24 24 24 24 25 24 24 25 26 26 26 26 27 27 26 27 28 29 30 30 30 30 30 31 31 32 33 34 35 36 37 37 35 34 33 34 35 35 34 33 32 32 29 24 20 19 19 19 18 16 14 13 14 14 14 13 12 12 14 16 17 17 18 19 19 19 18 17 18 21 24 26 27 27 27 27 28 29 29 28 28 27 29 30
25 24 23 24 25 25 24 25 25 26 26 26 26 26 26 26 26 28 29 31 31 31 31 32 31 31 32 33 34 34 36 39 39 37 38 37 37 35 35 36 35 33 31 29 23 20 20 20 19 17 15 14 13 13 13 12 12 12 14 15 18 19 18 19 19 20 21 21 20 20 22 24 26 26 27 28 29 28 28 28 29 29 29 29 29
25 23 23 24 24 24 24 24 24 25 25 25 25 25 25 25 25 26 27 29 30 31 31 32 32 31 32 33 34 33 35 39 40 40 40 40 38 36 33 35 35 32 32 30 24 19 21 21 18 16 14 13 13 12 12 13 13 14 16 18 20 21 20 19 21 22 22 22 22 22 24 25 27 26 26 27 28 28 28 27 27 29 30 31 30
25 23 23 23 24 23 23 23 23 23 23 23 23 23 23 24 25 25 25 26 29 29 30 32 33 32 32 34 34 33 35 38 40 41 41 40 40 39 34 33 34 32 31 30 24 19 20 20 17 15 14 13 13 13 13 13 15 16 17 19 21 21 21 21 22 24 24 23 23 24 25 26 26 26 24 25 27 27 28 29 28 28 29 30 30
25 23 22 23 23 23 22 22 23 22 21 21 21 22 22 23 25 27 27 26 27 28 30 32 33 33 33 34 33 34 36 37 38 41 41 39 40 40 35 32 33 31 31 30 24 19 20 20 18 16 15 13 13 13 13 15 16 18 19 20 21 21 21 22 24 25 25 25 24 24 26 26 25 25 24 25 26 25 26 27 28 28 29 29 29
26 24 23 23 23 23 23 23 23 22 22 22 21 22 23 24 27 29 29 28 27 28 31 32 33 35 36 34 33 33 36 37 38 40 39 37 37 37 34 32 32 30 30 28 22 18 19 20 19 17 16 14 13 13 14 16 18 20 21 22 22 22 22 24 25 26 26 27 27 26 27 26 25 26 26 26 26 25 24 24 26 27 29 29 29
28 26 23 23 24 24 24 23 23 23 22 21 21 22 24 25 27 29 29 29 29 30 33 34 33 34 36 36 34 34 36 37 38 38 36 35 35 35 34 33 31 29 29 26 19 16 18 20 20 19 17 16 14 13 15 18 19 21 22 22 23 24 25 26 27 27 27 28 28 28 28 28 27 27 28 27 27 27 26 25 26 27 29 31 31
28 27 24 24 24 25 24 23 23 23 22 21 21 22 24 26 28 29 30 31 31 32 34 34 34 34 35 36 36 35 36 36 36 36 36 35 35 34 35 34 31 31 30 24 18 17 18 21 22 21 20 17 14 13 16 19 21 21 21 21 23 24 25 27 28 28 28 29 29 28 28 29 28 27 28 28 28 28 28 29 29 30 31 33 33
28 27 24 24 24 25 25 24 24 23 22 22 23 23 25 27 29 30 31 32 32 33 34 34 35 35 36 37 37 35 35 35 33 34 36 36 35 34 34 33 32 33 32 26 21 19 19 22 24 23 22 18 14 14 17 19 21 22 21 22 23 25 26 27 28 28 29 29 29 28 28 28 28 28 28 28 28 28 29 31 32 34 34 35 35
27 27 26 25 25 25 26 25 25 24 24 24 25 26 27 29 30 30 31 32 32 31 31 32 34 36 37 39 38 35 36 35 31 32 34 35 34 34 34 33 33 34 32 28 24 20 18 21 24 24 23 18 16 17 19 20 21 21 22 24 24 25 25 27 28 29 30 30 29 28 27 27 28 28 27 28 28 29 30 32 33 34 34 34 35
28 28 28 27 27 27 27 26 26 25 26 27 27 27 28 29 30 30 30 31 30 29 29 30 33 35 37 39 39 38 37 35 30 29 30 32 33 33 33 33 33 34 31 27 23 20 19 21 23 23 22 19 18 20 21 21 21 22 23 24 24 24 24 26 28 29 28 29 29 28 27 28 29 28 27 28 30 31 32 33 33 33 34 34 35
30 29 30 30 29 28 27 27 27 27 28 28 27 27 28 28 29 29 29 29 28 28 29 29 29 31 34 37 39 39 37 33 29 27 28 30 32 32 33 33 32 31 28 24 21 19 19 21 22 23 23 20 19 21 23 23 24 23 23 24 24 24 25 26 29 29 28 28 28 28 28 27 28 29 28 29 31 32 33 34 34 34 35 36 36
33 32 32 31 30 29 28 28 28 29 29 27 26 27 28 28 28 28 28 29 28 26 26 27 27 29 33 36 39 39 35 31 27 24 26 30 32 32 32 32 32 30 25 22 21 20 19 21 22 23 23 21 20 22 24 25 26 25 25 25 25 26 26 27 29 29 29 29 29 29 29 29 29 29 30 31 32 32 33 34 34 35 37 38 38
35 33 32 31 29 29 30 30 31 31 29 27 27 28 28 28 28 28 29 28 25 23 23 26 28 29 32 36 38 38 34 29 24 22 26 30 31 31 31 31 32 30 24 22 22 20 20 21 22 23 24 23 22 23 25 25 25 25 26 26 26 27 27 28 29 29 30 29 28 28 29 29 30 30 30 31 32 33 34 34 34 35 37 37 35
36 34 32 31 31 32 33 33 33 31 29 28 28 28 27 27 28 28 27 24 21 21 23 26 28 30 32 35 37 37 34 28 22 22 27 30 30 30 31 31 32 30 25 24 23 21 21 23 23 23 23 23 23 24 25 24 24 26 27 27 28 28 29 29 29 30 31 30 29 29 28 28 29 29 29 29 30 31 33 33 32 33 34 34 32
38 36 34 35 35 35 35 34 32 31 30 28 27 26 26 27 28 25 23 21 21 23 25 27 30 32 34 35 36 36 33 27 22 23 27 29 29 31 32 32 31 29 26 25 23 22 23 23 23 22 23 23 23 24 24 23 25 27 28 28 29 29 29 30 30 31 32 31 31 31 30 30 30 29 28 27 27 28 29 30 30 30 31 31 32
40 39 38 38 38 37 35 33 32 30 28 25 25 26 27 27 26 23 21 22 24 25 26 28 31 32 34 35 35 34 31 26 21 23 26 29 30 32 33 31 30 29 26 25 25 25 24 23 23 22 22 23 24 23 23 24 26 28 29 29 29 29 30 31 32 32 32 31 31 31 31 30 29 29 28 26 25 26 28 29 28 28 30 31 32
42 40 39 39 38 35 34 33 31 28 25 23 25 27 26 25 23 21 22 25 26 27 27 29 30 31 33 34 33 32 30 24 22 25 29 31 33 34 33 31 30 29 27 26 26 26 24 23 23 22 22 23 23 23 25 27 28 29 30 30 30 31 32 33 33 32 32 31 31 30 30 29 28 27 26 25 25 26 27 27 28 29 31 33 35
42 41 40 38 36 35 34 33 30 27 25 27 29 28 26 25 23 22 24 25 26 26 28 30 30 31 32 33 32 31 29 25 24 27 31 32 33 33 32 31 30 29 26 25 26 25 24 23 23 22 22 22 22 24 26 28 28 29 30 30 31 32 34 35 33 32 32 31 30 29 28 27 26 25 25 24 24 26 26 25 26 28 30 32 34
43 41 39 38 37 36 34 30 26 25 26 29 30 28 25 24 23 23 25 26 26 26 29 30 30 30 31 32 32 31 29 26 24 26 29 30 31 31 31 31 31 28 24 24 25 24 23 23 24 24 23 22 23 25 27 28 29 29 30 31 33 34 35 35 33 32 32 31 29 28 26 26 25 24 24 24 25 25 26 25 25 27 29 30 31
42 40 39 38 37 35 32 27 24 25 25 26 26 24 23 24 24 25 26 27 27 27 29 30 30 30 30 31 31 31 30 26 23 23 25 26 27 29 30 31 30 26 24 24 25 24 23 23 24 25 25 24 25 26 27 28 28 29 30 32 34 35 35 34 33 33 32 29 28 27 25 24 24 24 24 25 26 26 26 26 27 28 29 29 29
41 40 39 38 36 33 29 26 24 24 25 25 25 24 24 25 26 27 28 28 28 29 31 31 30 29 29 30 30 30 29 24 21 21 22 22 24 27 30 30 27 25 24 25 24 23 23 23 25 27 27 26 26 26 27 28 29 31 32 33 34 34 34 34 33 32 30 28 27 25 24 23 23 24 25 26 27 27 28 27 27 28 29 29 27
40 40 39 37 34 30 27 25 24 23 23 23 23 23 25 27 27 28 29 29 31 31 31 30 29 28 28 28 27 27 25 21 20 21 21 20 23 26 28 27 25 25 24 24 23 22 23 25 28 30 28 25 25 26 28 30 31 33 33 34 35 35 34 33 33 31 30 27 25 23 22 23 23 24 25 27 28 28 29 28 28 27 28 28 27
39 38 35 32 29 26 24 23 23 23 24 26 28 30 31 30 29 29 29 31 31 31 29 28 26 26 26 24 22 22 22 20 19 20 20 21 23 26 27 26 24 24 23 22 22 23 24 28 30 29 26 24 25 28 30 33 34 34 34 35 35 35 33 32 32 30 28 25 22 21 21 22 23 23 24 26 27 28 29 29 28 27 27 27 26
36 33 31 28 25 24 23 24 25 28 31 34 36 37 35 32 30 30 31 31 30 28 27 26 24 23 22 20 20 21 20 19 19 19 21 23 24 24 24 23 22 22 22 21 22 24 26 28 28 25 24 25 27 30 33 34 34 35 34 33 32 31 30 30 28 26 24 22 20 20 21 22 23 23 24 25 26 27 28 28 27 26 25 25 25
32 30 27 25 23 23 24 27 29 30 30 29 30 32 31 30 30 30 30 30 28 26 24 21 19 19 19 20 20 19 18 18 19 20 22 24 24 23 22 21 21 21 21 21 23 25 26 25 24 24 24 26 29 33 35 35 34 34 32 30 28 28 28 28 27 26 24 21 18 19 21 23 23 24 24 25 26 27 28 27 26 25 24 24 25
29 27 25 24 23 23 25 27 28 27 25 25 27 28 28 28 29 29 28 27 26 24 21 18 16 17 18 20 20 20 20 20 21 23 24 24 22 21 21 22 22 23 23 23 24 25 24 22 22 23 26 29 32 34 36 36 34 33 32 31 29 28 27 26 26 26 26 22 19 20 22 24 25 25 25 26 27 27 27 26 25 24 24 23 24
26 24 23 23 23 23 24 25 24 24 24 25 26 26 26 27 27 27 26 24 22 20 19 18 18 18 19 21 23 25 24 21 21 25 25 23 21 20 21 23 23 24 25 23 22 21 21 20 21 23 27 30 31 32 33 33 31 29 30 29 28 28 28 27 25 25 25 23 22 23 24 24 25 26 26 27 27 26 25 24 24 23 23 23 24
21 21 22 21 20 20 21 22 23 23 24 24 24 25 25 26 25 24 23 22 19 17 17 17 18 18 18 20 22 24 23 22 23 25 24 22 21 21 22 22 23 24 23 21 19 18 18 19 22 26 28 29 29 30 31 31 29 27 27 26 25 26 29 29 27 25 25 25 25 25 26 26 26 25 25 26 26 25 24 23 23 22 22 23 23
18 20 20 19 19 20 21 22 23 23 23 23 23 24 25 24 23 23 22 20 17 16 15 16 17 19 19 20 23 26 28 29 28 27 25 24 24 23 22 22 22 21 18 16 17 18 19 21 24 27 28 28 29 30 31 32 30 27 25 25 26 26 27 29 29 27 26 26 26 25 26 26 26 25 25 25 25 24 23 23 22 22 22 23 23
17 18 18 18 18 19 21 22 23 22 22 22 23 23 23 23 22 22 20 18 16 15 15 16 17 18 19 22 26 30 33 33 30 28 27 26 24 21 20 20 19 17 16 16 18 19 20 23 24 25 26 27 29 31 32 31 29 26 24 25 26 26 27 28 29 28 26 25 24 24 24 24 24 24 24 24 23 23 22 22 22 22 22 23 23
17 18 18 17 18 19 21 22 22 22 22 23 23 22 21 21 20 19 18 16 14 13 14 14 14 14 16 20 26 30 31 30 27 25 25 23 18 15 17 19 18 15 14 17 19 21 22 22 22 23 24 27 29 31 31 29 27 25 24 25 26 26 26 27 28 27 25 23 23 23 23 23 23 23 23 22 22 21 21 21 21 22 22 22 22
18 18 19 19 19 20 21 22 22 21 21 20 19 18 18 18 17 16 16 15 13 13 14 13 12 12 14 18 22 25 27 27 27 26 25 25 22 20 20 19 16 14 15 18 21 23 23 22 21 21 24 26 29 29 28 26 24 23 23 24 24 25 26 25 25 25 23 22 22 22 21 21 21 21 21 21 20 20 20 21 21 21 21 21 21
18 18 18 20 20 20 21 21 20 18 16 15 15 16 16 16 16 15 14 13 12 12 12 11 9 11 14 15 15 16 18 20 23 25 26 26 24 21 17 15 14 15 17 19 21 23 24 22 21 22 24 25 27 27 25 23 22 21 22 22 22 22 23 23 23 23 22 22 21 21 20 20 20 20 19 19 19 19 20 20 21 20 20 20 21
16 15 15 17 19 19 19 18 16 14 13 13 15 16 15 16 16 15 13 13 12 11 11 10 8 9 11 12 13 13 14 16 19 21 22 22 21 18 15 15 15 17 19 21 23 26 26 24 22 22 23 23 24 23 22 21 21 20 21 21 21 21 21 21 21 22 21 20 20 21 20 19 18 18 18 18 18 19 19 20 19 19 19 19 20
13 12 11 14 16 17 16 15 15 14 14 16 17 16 15 16 16 15 14 13 12 11 11 11 11 11 12 14 14 15 16 17 18 19 20 20 19 17 17 17 18 19 21 24 26 27 26 24 23 22 21 21 21 20 19 20 20 20 20 21 22 21 21 20 21 21 21 19 19 19 19 18 17 16 16 16 18 18 19 18 18 18 19 19 19
11 13 13 14 15 15 15 16 17 16 16 17 17 17 16 17 16 15 14 14 13 12 12 12 12 12 13 13 13 14 15 15 16 17 19 19 18 18 18 19 20 21 23 25 26 25 25 25 23 22 21 20 19 18 18 18 18 18 19 20 21 21 20 20 21 21 20 19 18 18 17 16 15 14 14 16 17 18 18 17 17 17 18 19 19
13 14 15 16 16 16 15 16 17 17 16 16 17 17 17 18 18 17 16 15 14 13 14 14 14 13 13 13 14 15 15 15 16 17 18 18 18 19 19 20 22 22 23 23 24 24 24 24 22 21 21 20 18 17 17 17 17 17 18 19 19 19 20 20 20 19 18 17 17 17 16 14 13 13 14 15 15 16 16 16 16 17 17 18 19
16 15 15 16 17 17 16 16 16 17 17 17 17 16 16 17 18 18 17 16 15 15 16 16 15 16 16 17 17 17 16 16 16 17 18 18 19 20 22 23 24 23 23 23 23 23 22 21 19 19 20 20 19 17 17 17 18 18 18 18 18 19 19 19 18 18 17 16 15 15 14 12 12 12 13 14 14 15 15 15 16 16 17 17 18
18 17 17 17 17 16 16 15 16 17 17 17 16 15 14 14 14 14 15 16 17 17 17 17 17 17 17 17 16 15 15 15 16 17 18 19 20 21 23 23 23 22 21 22 22 21 19 18 17 18 18 18 17 17 18 18 18 17 17 18 18 18 18 17 17 16 15 14 14 13 12 11 11 12 13 13 14 14 14 15 15 16 16 17 17
20 18 17 17 17 17 16 16 16 16 16 16 15 13 13 13 13 13 14 16 17 17 17 17 17 16 14 13 12 12 14 15 17 18 20 21 21 20 20 20 19 18 19 19 18 16 15 16 17 18 18 17 15 15 16 17 18 17 17 17 17 17 16 15 15 14 13 12 12 11 11 11 11 12 12 13 13 14 14 14 14 15 15 16 16
19 18 18 18 18 17 17 16 16 15 14 14 13 12 12 13 13 14 15 16 17 17 17 15 13 12 12 11 12 14 16 18 19 19 20 21 20 18 16 16 16 15 15 16 16 14 14 16 17 18 17 16 15 14 15 16 17 17 16 16 16 16 15 14 13 13 12 11 11 11 11 11 11 11 12 12 13 13 13 13 13 14 14 15 15
15 14 14 15 16 17 16 16 15 14 13 13 12 12 12 13 14 15 15 16 16 16 15 13 12 12 12 14 15 16 17 17 18 18 18 18 18 18 17 17 16 15 14 15 16 15 14 15 16 17 16 15 14 13 14 15 15 15 16 16 15 14 14 13 13 12 11 11 11 12 11 11 11 11 11 12 13 13 12 12 12 12 13 14 15
13 11 11 12 13 14 14 14 14 14 13 13 13 13 13 13 13 14 15 16 16 16 15 14 13 13 14 15 15 15 15 15 16 18 17 16 16 19 19 18 17 16 15 15 16 15 13 13 15 16 15 14 13 12 12 13 14 14 14 14 14 14 14 13 12 11 11 12 12 12 12 11 11 11 12 12 12 12 11 11 11 11 12 13 14
11 11 10 11 11 12 12 12 13 13 13 13 13 13 13 13 13 14 15 15 15 15 15 14 14 14 14 14 14 15 15 15 16 17 17 15 15 19 20 18 17 16 16 17 18 17 14 13 13 13 14 14 13 12 12 13 14 14 13 13 13 14 14 12 11 11 12 12 12 12 12 12 12 12 12 12 12 11 11 11 10 11 12 12 14
10 10 11 11 12 12 12 12 12 12 13 13 13 12 13 13 14 14 14 14 14 14 13 12 12 13 13 13 14 14 14 14 14 16 16 16 16 18 19 18 17 17 17 19 20 19 17 14 12 11 12 14 14 13 12 12 13 12 12 13 14 14 13 12 12 12 12 12 13 13 12 12 12 12 12 12 12 11 11 11 10 11 11 12 13
10 11 12 12 12 12 12 13 12 12 12 12 12 12 12 12 12 12 12 12 12 12 11 10 10 11 12 13 13 13 13 13 13 15 16 16 16 17 19 19 19 18 18 19 20 20 19 15 12 11 12 13 14 14 13 13 12 12 13 14 14 14 13 13 13 13 13 13 13 13 13 13 13 13 13 13 12 11 11 11 11 11 11 12 12
10 11 12 12 12 12 12 12 12 12 12 12 11 11 11 11 11 10 10 11 12 13 13 12 11 12 13 13 13 14 15 15 15 15 16 17 17 17 18 19 20 20 19 18 19 20 20 16 13 12 12 12 13 14 14 14 13 12 12 13 14 14 14 14 14 14 14 15 14 14 14 14 13 13 14 13 12 12 12 12 12 12 12 12 12
Wind_Direction
219 221 222 223 225 227 228 230 232 233 235 238 242 244 247 249 252 254 254 255 256 260 265 264 263 266 270 274 278 281 281 281 286 290 292 295 294 296 303 310 316 320 320 315 300 286 290 295 294 294 291 289 294 298 302 307 307 306 305 307 312 314 311 308 309 311 311 308 306 305 302 300 299 299 299 299 299 299 301 303 303 301 300 301 302
224 223 223 223 225 228 231 232 235 236 237 240 244 247 249 252 255 257 259 260 260 264 269 270 270 272 274 277 280 282 282 282 285 288 292 296 295 293 296 301 308 316 320 318 306 287 284 289 291 290 289 287 289 293 298 302 303 301 301 305 309 310 307 305 306 308 310 309 306 303 300 298 297 296 297 298 298 297 299 301 301 300 301 302 302
226 225 224 225 226 229 231 233 236 239 241 243 246 249 251 254 257 260 263 265 266 269 273 274 274 276 277 278 281 283 284 284 285 285 287 294 297 294 292 295 302 311 319 320 310 291 282 286 288 286 284 282 283 290 294 296 297 296 297 301 304 305 305 305 307 308 309 309 306 302 299 297 296 295 295 295 296 296 295 296 297 298 300 299 298
226 225 225 226 227 229 231 233 236 239 242 245 247 250 253 255 257 260 264 268 271 273 275 276 276 277 278 279 282 284 286 285 285 284 282 288 299 298 291 292 298 305 315 319 311 294 284 284 285 281 279 277 278 285 290 291 292 291 292 297 301 303 303 306 309 310 307 305 302 300 298 295 294 294 294 294 294 293 293 293 294 295 297 297 296
227 226 225 226 228 230 232 234 236 239 242 246 248 251 255 258 259 259 262 267 272 275 276 278 279 279 278 280 283 286 286 286 285 284 281 286 299 302 292 289 294 300 309 315 310 296 287 283 280 276 273 273 276 283 287 286 287 288 291 296 298 298 300 306 311 311 308 304 300 299 298 295 295 294 293 292 292 292 291 291 292 293 296 297 295
229 227 225 226 229 230 231 234 236 238 241 244 248 251 256 259 261 260 261 264 269 274 277 279 281 281 280 279 283 286 285 285 284 283 283 285 295 303 296 287 290 296 304 310 308 298 287 280 275 271 269 271 276 282 284 284 284 288 293 296 296 293 295 304 311 312 310 306 301 298 295 294 295 295 294 293 293 293 292 290 290 291 295 298 296
232 229 226 229 232 232 232 234 237 239 240 242 246 249 253 257 261 262 262 262 267 272 276 279 281 282 281 280 283 285 283 283 283 282 283 284 289 298 297 288 287 293 300 305 304 295 285 276 268 265 266 271 278 281 281 283 286 292 296 297 295 293 294 301 308 312 312 309 306 302 299 298 298 298 298 296 295 296 295 293 293 293 295 296 297
232 232 229 230 233 233 234 235 238 241 242 242 244 246 249 254 258 262 264 264 268 272 275 280 282 283 283 282 284 284 280 281 282 279 281 285 288 293 295 289 285 290 297 301 299 290 280 270 262 261 263 269 275 279 282 286 292 295 296 296 297 298 299 303 307 309 310 310 310 309 306 304 304 303 302 301 298 297 296 297 299 300 297 296 298
231 233 230 230 233 234 234 235 238 242 243 242 244 247 249 252 255 261 266 268 270 273 276 281 285 286 288 288 286 284 281 280 279 278 281 288 288 288 291 288 284 285 293 296 292 283 274 265 258 259 262 265 268 271 281 290 296 297 296 295 297 301 304 307 308 308 309 310 312 312 309 308 308 306 303 303 301 297 295 296 299 299 297 298 300
229 232 230 228 231 233 234 236 238 240 244 245 246 248 251 253 255 259 266 271 273 275 278 284 289 291 294 295 291 288 283 279 277 279 284 289 288 286 287 286 282 280 285 289 283 272 265 258 257 259 261 265 268 275 287 294 298 299 298 296 296 299 304 308 309 309 309 310 311 310 308 308 307 304 303 304 302 299 298 297 297 297 297 299 302
228 230 230 227 228 232 233 235 237 238 242 244 246 248 250 253 256 260 266 271 274 277 280 286 291 294 296 298 296 292 286 280 279 282 285 286 285 285 284 281 277 275 278 280 269 257 253 253 255 259 262 267 274 284 292 296 298 299 297 298 299 300 303 307 309 309 308 309 308 307 307 306 304 302 302 302 301 300 298 297 298 298 298 301 303
228 227 229 228 227 230 231 233 235 236 239 243 245 247 248 251 257 262 266 270 274 278 282 286 291 294 296 297 297 293 286 282 282 284 285 285 284 283 279 274 273 276 280 279 266 252 246 250 254 257 260 266 275 284 290 295 299 298 296 298 301 301 302 305 308 308 307 305 303 303 304 303 300 299 299 298 299 298 297 297 299 300 300 302 304
230 225 227 227 225 227 229 231 232 234 236 241 244 247 249 253 259 264 267 270 274 279 282 285 289 293 296 296 295 290 285 286 288 286 285 284 282 279 276 274 276 281 284 280 268 252 242 246 252 256 261 268 279 286 291 296 299 300 299 299 300 300 301 304 307 307 304 302 301 302 302 299 296 296 296 296 297 297 296 296 298 299 300 302 302
232 225 224 225 224 226 228 229 231 234 236 240 244 248 252 256 261 265 267 269 273 277 280 283 287 291 294 294 292 288 288 293 295 289 284 281 278 276 275 276 281 283 282 276 262 245 237 243 250 258 264 271 281 290 295 298 299 298 297 297 298 299 301 303 303 302 300 299 299 300 300 297 295 297 297 297 297 297 298 298 299 301 301 300 300
232 226 223 224 225 226 229 230 232 236 238 242 247 251 256 259 262 263 265 267 271 274 276 280 287 293 295 293 290 289 291 295 295 290 282 278 276 274 274 277 281 282 277 268 253 238 234 241 250 260 267 272 281 291 298 299 299 298 297 298 299 301 303 303 302 301 301 301 301 301 300 298 297 299 300 299 298 299 300 301 302 303 302 300 300
231 228 224 225 226 228 230 231 233 238 242 246 250 253 256 258 259 262 265 267 270 273 277 283 290 296 297 295 291 290 291 293 291 285 276 271 272 272 274 278 280 277 268 255 246 237 232 239 251 262 271 278 286 294 297 298 299 300 300 300 301 303 305 304 303 304 304 305 304 304 303 303 302 303 303 302 303 302 302 302 304 303 302 301 303
230 229 226 226 228 229 231 232 235 240 244 247 249 251 253 257 260 264 266 267 269 277 285 288 290 294 298 297 293 289 289 289 286 276 268 266 268 271 274 276 275 270 257 241 238 237 233 239 251 263 273 282 290 296 297 296 298 300 299 299 300 303 305 305 304 304 303 303 303 303 303 304 305 305 305 304 304 303 302 303 303 302 301 303 306
230 229 227 227 229 229 231 234 236 239 242 243 246 250 254 259 262 262 263 267 274 285 289 289 290 295 298 296 291 287 287 285 276 265 264 267 269 270 272 272 269 263 249 234 233 236 235 240 251 263 274 283 290 295 295 295 296 297 297 299 302 304 306 306 306 304 304 304 303 302 303 304 304 304 303 303 302 301 301 303 304 304 304 307 310
229 228 226 226 228 229 232 234 234 235 238 240 245 252 256 259 260 259 262 270 280 287 289 291 296 300 297 291 286 285 287 283 270 260 263 267 269 269 269 268 265 258 244 233 233 237 238 241 250 262 273 282 289 293 294 294 294 296 298 300 303 306 307 307 305 304 304 304 304 304 305 305 305 304 303 302 300 300 301 304 306 307 308 310 313
228 227 225 226 228 230 231 232 231 232 235 240 249 255 256 256 256 257 264 275 285 290 290 292 297 297 291 287 285 287 288 282 269 261 263 265 266 266 266 266 264 256 243 235 236 240 242 245 252 263 275 284 290 293 295 295 294 296 300 302 304 306 305 304 304 303 302 302 303 304 305 305 305 303 302 302 303 305 307 308 309 309 309 311 313
228 227 227 227 229 229 229 229 228 228 233 245 257 259 256 253 255 261 271 283 291 292 288 289 292 291 289 288 288 288 286 278 264 259 261 263 265 264 263 262 259 251 240 235 238 243 245 249 257 267 276 283 289 293 294 295 296 300 302 304 304 304 302 301 301 301 301 301 301 302 303 303 302 300 301 305 308 307 306 307 309 310 311 311 311
228 228 227 227 227 226 226 225 224 225 233 247 258 260 256 255 261 270 279 288 292 289 286 290 292 290 290 291 290 288 283 274 263 259 259 260 261 260 258 256 252 244 238 237 241 245 248 254 263 271 276 281 288 292 294 296 300 302 303 302 302 300 299 299 300 300 299 299 300 301 302 300 299 299 301 304 303 300 301 304 306 306 305 305 306
225 224 223 223 223 222 221 221 225 234 242 251 257 258 255 260 271 280 286 293 294 289 288 291 291 289 289 290 290 287 282 274 267 261 259 260 260 257 254 251 246 240 236 240 244 246 250 259 268 274 278 283 288 292 295 297 299 300 300 299 299 299 298 298 299 298 298 298 299 299 298 297 297 298 299 300 299 300 302 304 304 302 301 302 304
219 219 219 219 219 218 218 223 233 243 246 249 252 255 259 269 279 287 292 296 295 290 288 289 288 287 288 289 289 286 282 279 273 263 258 259 257 252 247 245 241 237 235 238 243 248 255 264 270 275 280 284 288 291 295 296 297 297 298 298 299 299 298 297 297 297 297 297 296 296 296 295 296 297 300 302 302 303 305 305 305 304 304 304 306
214 214 215 215 216 217 220 227 236 242 246 249 253 260 271 281 288 293 296 295 292 289 287 286 287 288 289 289 287 284 282 280 272 260 253 248 244 241 239 239 239 237 235 237 242 250 259 265 271 277 281 284 286 291 294 296 298 299 299 300 300 299 297 296 296 296 295 293 293 295 297 297 299 302 305 306 306 306 307 307 307 306 305 305 306
209 210 211 212 214 218 224 231 237 242 247 253 261 273 283 289 293 295 295 292 289 288 287 287 289 291 291 290 286 282 282 277 264 255 248 239 235 235 235 236 237 235 234 236 243 250 257 267 275 280 281 283 288 294 298 300 302 302 301 301 301 301 299 298 296 294 291 290 292 294 296 299 302 306 306 305 306 307 308 308 308 307 306 306 307
206 207 209 212 216 223 231 239 247 256 263 270 278 284 287 291 294 293 289 287 286 285 286 288 291 291 292 291 284 280 278 269 255 249 245 239 234 233 232 234 235 235 235 239 244 252 262 272 277 278 279 283 290 295 300 303 303 302 301 301 301 301 301 299 296 293 291 289 289 292 295 300 304 305 304 304 306 308 309 309 310 309 307 306 306
203 205 209 215 224 234 243 250 258 267 274 278 280 280 281 286 290 288 284 282 282 283 286 289 291 293 295 291 282 280 278 268 256 248 241 236 233 232 234 235 235 236 239 242 248 260 270 274 273 273 277 285 291 296 300 302 301 299 299 299 299 299 299 297 295 293 291 289 288 291 297 302 305 305 306 307 308 310 310 310 310 308 307 306 306
202 207 215 225 236 247 256 261 265 269 274 277 277 276 278 283 284 280 279 280 281 285 288 287 287 291 292 284 278 279 277 266 253 240 233 233 234 234 235 237 237 238 240 244 254 265 269 267 266 269 277 285 291 295 297 297 297 297 298 300 301 301 302 302 301 300 299 298 296 297 301 305 306 308 309 311 311 312 312 310 309 307 306 306 306
207 215 225 236 244 253 261 265 268 271 275 278 278 278 279 280 277 275 278 281 284 288 288 281 273 271 269 267 268 267 261 253 243 236 235 238 236 232 233 236 236 238 242 248 256 260 260 258 262 273 283 289 292 294 295 297 299 303 305 307 307 306 305 304 303 302 302 303 302 299 301 305 308 311 313 313 313 313 311 309 308 306 305 306 307
216 225 235 241 246 253 260 265 270 274 276 278 278 277 275 274 273 276 280 283 286 286 280 273 270 265 260 263 266 259 249 243 240 240 240 239 236 235 238 239 241 244 248 250 252 252 254 259 269 280 289 292 294 294 295 296 298 301 303 305 303 300 300 300 301 301 302 303 302 300 301 305 309 312 313 312 311 311 310 308 306 305 306 308 309
228 235 241 245 249 255 262 268 272 274 276 277 275 273 272 273 276 279 281 282 283 280 271 268 274 278 276 276 274 262 251 246 243 239 235 233 234 237 238 239 242 245 247 248 249 251 258 268 278 286 290 291 292 293 293 293 294 295 296 297 294 293 296 299 302 304 303 301 300 301 303 306 308 310 311 310 309 309 308 307 306 306 308 310 312
240 246 251 256 260 265 268 271 272 271 272 273 272 271 273 275 277 278 278 279 280 281 279 278 282 285 286 283 274 262 255 251 243 235 231 231 234 235 236 238 242 246 249 251 251 253 261 271 280 286 288 289 292 294 294 296 298 298 296 294 293 294 296 298 300 301 301 300 300 300 301 302 305 308 309 308 308 308 307 307 307 308 310 313 314
253 258 263 265 267 268 269 270 270 270 270 271 270 271 272 274 276 278 281 283 285 287 287 282 279 282 285 278 264 253 248 246 240 233 231 231 229 229 233 240 247 255 258 255 253 257 266 275 281 286 287 290 294 295 295 297 299 297 294 291 292 294 294 294 295 298 300 300 297 296 297 300 304 308 308 306 306 305 305 306 307 309 313 315 316
252 257 260 261 263 265 266 267 268 269 270 270 270 271 273 274 277 279 282 287 289 286 281 278 277 281 281 270 259 253 252 250 245 240 241 244 244 246 252 258 262 261 257 256 259 264 272 280 287 290 292 294 296 295 294 294 294 293 291 290 290 292 293 292 295 299 301 301 298 297 300 303 305 306 305 303 303 304 304 306 309 313 316 318 318
247 253 256 257 259 261 263 265 266 267 268 269 270 271 273 274 277 281 285 289 290 286 284 285 283 277 272 267 263 264 265 263 257 253 259 270 277 278 275 272 269 261 256 259 264 269 278 289 295 295 295 296 294 291 290 292 292 291 289 289 290 293 294 295 298 300 302 301 300 300 302 303 303 303 302 301 301 302 304 308 313 316 320 321 321
247 251 256 260 260 261 262 264 264 264 265 267 269 271 273 275 278 284 289 291 289 287 290 293 283 268 267 270 271 269 268 265 262 263 268 274 276 273 267 261 257 256 260 266 270 276 284 291 292 291 292 291 288 287 288 290 290 289 288 289 292 293 295 297 299 300 301 302 301 302 302 302 302 301 299 298 300 303 307 312 316 319 323 324 324
252 251 252 255 258 261 264 265 264 265 266 268 269 271 275 279 281 286 291 292 291 291 295 298 292 279 277 279 280 277 272 268 265 266 267 267 265 259 251 248 252 259 265 272 279 284 287 287 287 289 289 286 284 286 288 289 289 290 291 293 295 296 297 299 299 298 299 300 299 300 300 299 298 297 296 298 301 305 310 315 319 322 326 326 325
260 259 254 252 255 259 261 262 265 267 270 271 272 274 278 281 282 285 288 290 292 294 293 293 294 293 289 285 281 279 277 273 268 265 262 257 252 247 244 248 257 266 273 279 283 286 288 290 293 293 289 285 283 284 286 287 290 293 296 297 297 297 298 298 297 297 298 298 296 296 297 296 295 295 296 299 303 307 313 319 322 325 327 327 327
256 261 260 258 257 256 255 258 262 265 269 274 278 280 281 281 280 281 283 285 287 288 287 290 293 292 289 284 280 279 279 275 267 259 251 246 242 242 247 255 265 273 279 282 284 286 288 292 293 290 285 284 284 285 286 288 290 293 295 294 294 295 296 297 297 297 298 298 297 295 295 294 293 294 296 300 305 310 316 321 324 326 327 328 329
254 255 256 256 257 257 255 258 262 266 271 275 278 280 281 280 280 281 282 283 283 284 286 292 295 292 288 288 288 287 282 272 261 251 245 241 241 245 253 263 271 275 276 276 278 283 287 290 290 287 285 287 288 287 287 289 290 291 291 290 291 293 296 297 298 297 297 297 296 294 293 292 291 293 296 300 306 311 317 322 325 326 328 329 330
243 245 250 253 256 258 259 261 266 270 272 274 276 277 277 278 279 281 282 283 284 286 289 292 293 291 289 289 288 284 277 266 256 251 248 247 249 255 262 269 271 271 271 273 278 283 285 285 284 285 288 292 295 295 293 293 292 291 290 291 293 295 296 296 297 298 299 297 294 292 291 290 290 293 297 302 307 312 317 322 325 327 329 330 330
235 239 246 250 254 258 261 262 263 264 266 270 273 273 272 273 277 281 284 285 287 287 287 289 289 288 286 284 282 279 272 263 257 257 258 261 264 266 267 267 267 267 272 279 284 287 288 286 283 283 285 287 290 292 293 293 292 292 293 294 294 294 296 298 299 300 298 294 290 288 288 288 289 293 298 303 308 313 318 323 325 327 329 331 332
243 240 242 247 253 256 258 258 258 259 263 268 271 272 271 271 273 276 279 283 286 286 285 286 285 283 280 280 279 277 273 267 266 268 270 272 272 270 268 268 270 275 281 284 284 285 289 288 284 281 281 281 281 283 286 290 292 293 293 293 293 294 298 301 300 298 294 290 287 286 284 284 288 293 298 303 308 312 317 322 326 328 330 332 334
249 245 243 245 248 249 249 252 256 258 261 265 268 268 268 267 269 273 277 279 281 281 280 279 276 274 275 278 279 277 276 274 274 275 275 276 276 276 277 282 286 288 289 290 289 289 292 290 285 283 283 283 282 282 283 286 291 293 292 291 294 298 300 299 296 294 293 289 285 282 280 282 287 292 298 303 307 312 318 323 326 328 332 334 337
240 240 238 239 243 244 244 247 252 255 258 261 263 263 265 268 271 275 277 277 275 273 271 269 267 267 272 277 277 276 275 274 273 275 277 281 285 288 289 291 292 292 293 295 295 294 297 297 292 288 286 283 282 284 284 285 288 290 291 293 296 297 297 296 296 295 293 289 283 279 278 281 286 291 297 303 306 311 317 321 325 328 332 336 339
229 229 227 229 236 239 239 244 251 255 257 260 262 264 267 270 270 270 270 270 269 267 266 266 265 266 270 273 271 269 269 270 272 275 277 280 285 289 291 292 293 296 299 300 297 299 305 306 297 289 288 288 289 289 289 288 287 288 291 294 295 292 292 295 296 293 288 284 281 279 279 281 285 290 296 301 305 309 314 318 322 327 331 336 340
216 217 219 223 229 236 240 246 253 257 259 261 263 267 269 269 267 265 265 264 264 263 264 265 265 266 268 267 264 264 267 270 273 275 276 277 280 284 287 291 295 299 304 305 303 304 311 311 299 289 288 291 293 292 290 287 287 290 292 291 287 287 290 293 291 286 283 281 280 278 278 280 284 290 295 300 303 307 311 314 318 323 328 335 339
207 213 221 228 233 239 244 249 254 257 258 258 259 262 264 264 263 261 258 256 256 257 258 261 263 263 260 259 261 264 268 270 270 271 273 275 277 280 285 291 294 297 302 305 306 307 310 311 306 296 293 294 296 296 293 289 288 290 290 286 283 285 291 291 286 282 280 278 276 275 275 278 283 287 292 298 302 306 309 310 312 317 324 331 337
214 219 226 233 237 241 245 249 252 253 251 251 253 255 255 254 253 251 249 249 252 254 255 255 256 256 258 261 264 265 265 264 266 269 271 273 274 277 282 288 291 295 300 304 306 305 306 307 306 304 302 302 303 302 299 295 292 290 289 289 288 288 289 286 283 280 277 275 274 273 273 275 280 284 289 296 301 304 306 306 306 311 318 325 332
220 224 229 235 240 244 246 248 248 245 242 244 247 246 242 239 237 235 236 240 246 252 255 256 255 258 262 264 264 263 262 260 258 259 263 267 271 274 277 281 286 292 296 301 303 304 304 304 306 308 307 306 307 309 309 304 296 290 290 291 291 289 285 280 278 277 275 273 272 271 270 272 277 282 286 293 299 304 305 304 302 306 312 319 326
Height
3156 3158 3159 3160 3162 3163 3165 3166 3168 3170 3171 3172 3172 3174 3175 3176 3177 3178 3179 3179 3180 3181 3182 3183 3184 3185 3185 3185 3186 3186 3186 3186 3185 3185 3185 3185 3185 3184 3184 3184 3183 3182 3181 3180 3179 3179 3179 3179 3178 3178 3177 3177 3177 3177 3177 3177 3177 3176 3176 3175 3175 3174 3173 3172 3171 3172 3173 3171 3170 3169 3168 3167 3166 3164 3163 3161 3160 3159 3157 3157 3156 3155 3155 3155 3154
3154 3155 3157 3158 3160 3161 3162 3164 3166 3167 3168 3169 3170 3171 3173 3174 3175 3176 3176 3177 3178 3178 3179 3181 3182 3182 3183 3183 3183 3183 3183 3182 3182 3183 3183 3183 3183 3182 3182 3182 3181 3180 3179 3177 3176 3176 3177 3177 3176 3175 3175 3175 3175 3175 3175 3175 3175 3175 3174 3174 3174 3173 3172 3171 3170 3170 3171 3170 3168 3167 3166 3165 3164 3162 3160 3158 3157 3156 3155 3154 3152 3151 3151 3150 3150
3152 3153 3155 3156 3157 3159 3160 3162 3163 3164 3166 3167 3168 3169 3170 3172 3173 3173 3174 3174 3175 3176 3177 3178 3179 3179 3180 3180 3180 3180 3180 3179 3179 3180 3180 3180 3180 3180 3180 3179 3178 3178 3176 3175 3174 3174 3175 3174 3174 3173 3173 3173 3173 3173 3173 3173 3173 3173 3173 3172 3172 3171 3171 3170 3169 3168 3168 3168 3167 3166 3164 3163 3161 3160 3158 3156 3154 3153 3152 3151 3150 3149 3148 3147 3146
3149 3151 3152 3154 3155 3156 3158 3159 3161 3162 3163 3165 3166 3167 3168 3170 3171 3171 3171 3172 3172 3173 3174 3175 3176 3176 3177 3177 3177 3177 3177 3176 3177 3177 3177 3177 3177 3177 3177 3176 3176 3175 3174 3173 3172 3172 3173 3172 3171 3171 3171 3171 3171 3171 3171 3171 3171 3171 3171 3170 3170 3170 3169 3168 3167 3165 3164 3163 3164 3163 3162 3160 3159 3157 3155 3153 3152 3151 3149 3148 3147 3146 3145 3144 3142
3146 3148 3150 3151 3152 3154 3155 3157 3158 3159 3161 3162 3164 3165 3166 3167 3168 3169 3170 3169 3169 3170 3171 3171 3172 3173 3173 3174 3174 3174 3174 3173 3174 3174 3174 3174 3174 3173 3174 3174 3173 3172 3172 3171 3171 3170 3170 3170 3169 3169 3169 3169 3168 3169 3169 3169 3169 3169 3168 3168 3167 3167 3167 3165 3164 3162 3160 3159 3159 3159 3158 3156 3155 3154 3153 3150 3149 3147 3146 3145 3144 3142 3141 3141 3140
3143 3145 3147 3148 3150 3151 3152 3154 3155 3157 3159 3160 3162 3163 3164 3164 3165 3166 3168 3168 3167 3167 3168 3168 3168 3169 3170 3170 3171 3171 3171 3170 3170 3171 3171 3171 3171 3171 3170 3170 3170 3170 3169 3169 3168 3168 3168 3167 3167 3166 3166 3166 3166 3167 3167 3167 3166 3166 3166 3165 3165 3164 3164 3162 3160 3159 3157 3156 3155 3155 3154 3152 3151 3151 3150 3147 3145 3144 3143 3142 3141 3139 3138 3136 3136
3140 3142 3144 3146 3147 3148 3150 3151 3153 3155 3156 3158 3160 3161 3162 3162 3162 3163 3165 3165 3165 3165 3165 3165 3165 3166 3167 3167 3168 3168 3168 3167 3167 3167 3168 3169 3169 3168 3167 3167 3167 3167 3166 3166 3165 3165 3165 3165 3164 3164 3164 3164 3164 3164 3164 3164 3164 3164 3163 3163 3162 3161 3160 3159 3157 3156 3154 3153 3152 3151 3150 3149 3148 3147 3146 3144 3142 3140 3139 3137 3137 3137 3135 3133 3132
3137 3139 3142 3143 3144 3146 3148 3149 3151 3152 3154 3156 3157 3159 3159 3160 3160 3160 3161 3162 3163 3163 3163 3162 3163 3163 3164 3164 3165 3165 3164 3163 3163 3163 3164 3166 3166 3165 3164 3164 3164 3164 3163 3163 3162 3162 3162 3162 3162 3162 3162 3162 3162 3162 3162 3162 3161 3161 3161 3160 3159 3157 3156 3155 3154 3152 3151 3149 3148 3147 3146 3145 3144 3143 3142 3140 3139 3137 3136 3133 3132 3132 3131 3129 3128
3135 3136 3139 3140 3141 3143 3145 3147 3149 3150 3152 3154 3155 3156 3157 3157 3157 3157 3157 3159 3160 3160 3160 3160 3160 3160 3160 3161 3162 3161 3160 3159 3159 3159 3160 3161 3160 3160 3160 3160 3160 3160 3160 3160 3160 3159 3160 3160 3160 3160 3160 3159 3160 3160 3160 3159 3159 3158 3158 3156 3155 3154 3153 3151 3150 3149 3147 3145 3144 3143 3142 3141 3140 3139 3138 3137 3135 3133 3132 3130 3129 3127 3126 3125 3125
3132 3134 3136 3138 3139 3141 3143 3145 3146 3148 3149 3151 3152 3153 3154 3155 3155 3155 3155 3155 3156 3157 3156 3156 3157 3156 3156 3156 3157 3157 3156 3155 3154 3154 3156 3156 3155 3155 3155 3155 3156 3156 3155 3156 3156 3156 3157 3158 3158 3157 3157 3157 3157 3157 3157 3156 3156 3155 3155 3153 3152 3150 3149 3148 3147 3145 3143 3141 3140 3139 3138 3137 3137 3135 3133 3132 3130 3128 3127 3126 3125 3123 3122 3120 3120
3129 3131 3133 3135 3137 3138 3140 3142 3144 3145 3146 3148 3149 3150 3151 3151 3152 3152 3152 3152 3153 3153 3152 3152 3152 3152 3152 3152 3152 3153 3152 3151 3150 3150 3151 3151 3151 3151 3151 3151 3151 3151 3151 3152 3153 3153 3153 3155 3155 3155 3154 3154 3155 3155 3154 3154 3153 3152 3151 3150 3149 3147 3146 3144 3143 3142 3140 3138 3137 3136 3135 3134 3133 3132 3130 3128 3127 3125 3123 3121 3120 3119 3117 3116 3115
3126 3128 3131 3133 3134 3136 3137 3139 3141 3142 3144 3145 3146 3147 3148 3149 3149 3149 3149 3150 3150 3150 3149 3148 3148 3148 3147 3147 3148 3149 3148 3147 3147 3146 3145 3146 3147 3147 3147 3147 3147 3146 3146 3148 3148 3148 3149 3151 3152 3152 3152 3152 3152 3153 3152 3151 3151 3149 3148 3147 3146 3145 3143 3141 3139 3138 3137 3135 3134 3133 3132 3130 3129 3128 3127 3125 3123 3122 3120 3118 3116 3114 3113 3112 3110
3123 3126 3128 3130 3131 3133 3134 3136 3138 3139 3140 3141 3142 3144 3145 3145 3146 3146 3147 3147 3147 3147 3147 3145 3144 3144 3143 3143 3144 3145 3144 3144 3144 3143 3142 3142 3143 3143 3142 3143 3143 3143 3143 3144 3144 3143 3145 3147 3149 3149 3150 3150 3150 3150 3150 3149 3148 3146 3145 3144 3143 3142 3140 3138 3136 3134 3133 3131 3130 3130 3129 3127 3125 3125 3123 3121 3119 3118 3116 3115 3113 3111 3109 3108 3106
3120 3122 3125 3126 3128 3129 3131 3133 3135 3136 3137 3138 3139 3140 3142 3143 3143 3144 3144 3144 3145 3145 3145 3144 3143 3141 3140 3139 3140 3140 3139 3140 3141 3140 3139 3139 3139 3139 3138 3139 3140 3140 3140 3140 3140 3140 3141 3143 3145 3146 3147 3148 3148 3147 3147 3146 3145 3144 3143 3141 3140 3139 3137 3135 3133 3132 3130 3128 3127 3126 3125 3123 3121 3120 3119 3117 3115 3114 3112 3110 3109 3107 3105 3104 3102
3116 3119 3121 3122 3124 3126 3128 3130 3131 3132 3134 3135 3136 3138 3139 3140 3141 3141 3142 3142 3142 3142 3142 3141 3141 3139 3137 3137 3136 3136 3135 3136 3136 3136 3135 3135 3135 3135 3134 3135 3136 3137 3136 3136 3137 3137 3138 3140 3142 3142 3143 3145 3145 3144 3143 3142 3142 3140 3139 3137 3136 3135 3133 3131 3129 3128 3126 3125 3123 3122 3120 3119 3117 3116 3115 3113 3111 3110 3108 3106 3104 3102 3100 3098 3098
3113 3115 3117 3119 3121 3123 3125 3127 3128 3129 3130 3132 3134 3135 3136 3137 3138 3138 3139 3139 3139 3139 3138 3138 3137 3136 3135 3134 3133 3131 3131 3132 3132 3131 3131 3131 3131 3131 3131 3131 3132 3133 3132 3132 3133 3135 3135 3136 3138 3139 3140 3141 3142 3141 3140 3139 3137 3136 3134 3133 3132 3131 3129 3128 3125 3123 3121 3120 3119 3117 3115 3114 3112 3111 3110 3108 3107 3105 3103 3101 3100 3098 3095 3093 3092
3109 3111 3114 3116 3118 3120 3122 3123 3124 3126 3128 3130 3131 3133 3133 3134 3135 3136 3136 3136 3137 3137 3136 3134 3134 3133 3131 3129 3127 3126 3126 3127 3128 3127 3127 3126 3126 3126 3127 3128 3128 3128 3129 3130 3130 3131 3132 3133 3135 3135 3136 3136 3137 3137 3136 3135 3133 3132 3130 3129 3128 3127 3126 3124 3122 3119 3118 3117 3116 3114 3112 3110 3109 3107 3106 3104 3103 3100 3098 3097 3096 3094 3091 3089 3088
3105 3108 3110 3113 3115 3117 3118 3120 3121 3123 3125 3127 3129 3130 3131 3132 3133 3133 3133 3133 3134 3134 3132 3131 3130 3129 3127 3124 3122 3121 3121 3123 3123 3122 3122 3121 3121 3122 3123 3123 3124 3124 3125 3127 3127 3128 3129 3130 3131 3132 3132 3132 3133 3133 3132 3131 3130 3128 3127 3125 3124 3123 3122 3120 3118 3116 3114 3113 3112 3110 3109 3107 3106 3104 3103 3101 3100 3097 3095 3093 3092 3090 3087 3085 3084
3101 3104 3106 3109 3111 3113 3114 3116 3119 3121 3123 3125 3126 3127 3128 3129 3130 3130 3131 3131 3131 3130 3129 3127 3126 3124 3122 3120 3119 3117 3116 3117 3118 3118 3118 3117 3117 3118 3118 3119 3119 3120 3121 3123 3124 3124 3125 3127 3128 3129 3129 3129 3130 3129 3128 3127 3126 3125 3123 3122 3120 3119 3117 3116 3114 3112 3110 3108 3107 3105 3104 3103 3102 3100 3099 3098 3097 3095 3092 3091 3089 3087 3084 3081 3080
3097 3100 3103 3105 3107 3109 3111 3114 3116 3118 3120 3121 3123 3124 3125 3125 3126 3127 3128 3127 3126 3126 3125 3122 3120 3119 3117 3115 3115 3114 3113 3113 3113 3114 3114 3113 3113 3114 3114 3114 3115 3117 3118 3119 3120 3120 3122 3124 3126 3127 3127 3126 3126 3125 3125 3124 3123 3121 3120 3118 3116 3115 3113 3112 3110 3108 3106 3105 3103 3101 3100 3099 3097 3096 3095 3094 3093 3091 3089 3087 3086 3083 3080 3078 3076
3093 3096 3099 3101 3104 3106 3109 3111 3113 3115 3116 3118 3119 3121 3121 3121 3122 3123 3123 3123 3122 3121 3119 3117 3116 3114 3113 3111 3111 3109 3108 3109 3110 3111 3111 3110 3110 3110 3110 3111 3112 3114 3115 3116 3116 3117 3119 3122 3124 3125 3124 3123 3123 3122 3121 3120 3119 3117 3116 3114 3112 3111 3110 3108 3106 3104 3102 3100 3099 3098 3097 3096 3094 3092 3091 3089 3088 3087 3086 3084 3082 3079 3076 3074 3072
3090 3093 3096 3099 3102 3104 3106 3107 3109 3111 3112 3113 3115 3116 3117 3118 3119 3119 3119 3119 3118 3116 3114 3113 3112 3110 3108 3107 3106 3105 3104 3105 3106 3107 3107 3107 3108 3108 3108 3108 3109 3110 3112 3112 3113 3115 3117 3119 3121 3122 3121 3120 3119 3119 3118 3117 3116 3114 3112 3110 3109 3108 3106 3104 3102 3100 3098 3096 3095 3094 3093 3091 3090 3089 3087 3086 3085 3084 3083 3082 3080 3077 3075 3073 3070
3086 3090 3093 3095 3098 3099 3102 3104 3106 3107 3109 3110 3111 3112 3113 3114 3115 3115 3115 3114 3113 3112 3110 3108 3107 3106 3104 3102 3102 3101 3100 3101 3102 3103 3103 3104 3105 3105 3105 3106 3107 3108 3109 3109 3110 3112 3115 3117 3117 3118 3118 3117 3116 3115 3114 3113 3112 3110 3109 3107 3105 3104 3101 3099 3097 3095 3093 3093 3092 3091 3089 3088 3086 3085 3084 3083 3082 3081 3079 3078 3077 3075 3072 3071 3069
3083 3086 3089 3091 3093 3096 3099 3101 3102 3104 3106 3107 3108 3110 3111 3111 3111 3111 3110 3110 3109 3107 3105 3104 3102 3101 3100 3098 3097 3096 3096 3097 3098 3098 3099 3100 3101 3102 3102 3103 3105 3106 3106 3107 3108 3110 3112 3113 3113 3113 3113 3113 3113 3112 3111 3110 3108 3107 3105 3103 3101 3099 3097 3094 3092 3091 3090 3089 3088 3087 3086 3084 3083 3082 3080 3079 3078 3077 3075 3074 3072 3070 3068 3066 3065
3080 3082 3085 3087 3090 3093 3095 3097 3099 3100 3102 3104 3105 3107 3108 3108 3107 3107 3105 3105 3104 3102 3101 3099 3098 3097 3096 3094 3093 3091 3091 3093 3094 3094 3095 3096 3097 3098 3099 3100 3102 3103 3104 3105 3106 3107 3108 3109 3109 3109 3109 3109 3109 3108 3107 3106 3104 3102 3101 3099 3097 3094 3092 3090 3088 3087 3086 3085 3084 3083 3082 3080 3079 3078 3076 3075 3074 3072 3071 3069 3068 3066 3064 3062 3061
3076 3079 3082 3085 3088 3090 3092 3093 3095 3097 3098 3100 3102 3104 3105 3104 3103 3102 3101 3099 3099 3097 3096 3094 3094 3093 3092 3090 3089 3087 3087 3089 3089 3089 3090 3092 3093 3095 3096 3098 3099 3100 3101 3102 3103 3104 3105 3105 3105 3105 3105 3105 3105 3104 3103 3101 3100 3098 3096 3094 3091 3089 3087 3085 3083 3082 3082 3081 3080 3079 3078 3077 3076 3074 3073 3071 3070 3069 3067 3065 3064 3062 3060 3058 3057
3074 3077 3080 3083 3086 3088 3089 3091 3092 3094 3094 3095 3096 3099 3101 3100 3098 3097 3096 3094 3093 3092 3091 3090 3089 3088 3087 3086 3085 3084 3084 3085 3085 3086 3087 3088 3090 3091 3093 3095 3096 3097 3098 3100 3101 3101 3102 3102 3102 3102 3101 3101 3101 3100 3098 3097 3095 3093 3092 3089 3087 3085 3083 3081 3079 3078 3078 3077 3077 3076 3075 3074 3072 3071 3070 3068 3067 3065 3063 3061 3060 3058 3056 3054 3053
3072 3075 3078 3081 3083 3085 3086 3088 3089 3090 3090 3089 3090 3093 3095 3095 3093 3092 3091 3090 3089 3088 3086 3085 3084 3084 3083 3083 3082 3082 3082 3082 3083 3084 3085 3085 3087 3088 3090 3092 3094 3095 3096 3097 3098 3098 3099 3099 3098 3098 3098 3098 3097 3095 3094 3093 3091 3089 3087 3085 3083 3081 3079 3077 3076 3075 3074 3073 3073 3073 3071 3071 3069 3068 3066 3065 3063 3061 3059 3057 3056 3054 3053 3051 3049
3070 3073 3075 3078 3079 3081 3082 3084 3084 3085 3085 3085 3086 3087 3088 3088 3087 3087 3086 3085 3084 3083 3082 3081 3081 3081 3080 3079 3079 3079 3080 3080 3081 3082 3083 3083 3084 3086 3088 3090 3091 3092 3093 3094 3094 3095 3095 3095 3095 3094 3094 3094 3093 3092 3090 3089 3088 3085 3083 3081 3080 3078 3076 3074 3072 3071 3069 3069 3069 3069 3068 3067 3066 3064 3062 3061 3059 3057 3055 3054 3052 3051 3050 3048 3046
3068 3070 3072 3074 3075 3076 3078 3079 3080 3081 3082 3082 3082 3082 3083 3083 3082 3081 3081 3080 3080 3079 3078 3078 3079 3079 3078 3077 3077 3077 3077 3077 3078 3079 3080 3081 3082 3083 3085 3087 3088 3089 3089 3090 3090 3091 3091 3092 3092 3091 3091 3090 3089 3088 3086 3084 3082 3080 3078 3076 3074 3073 3073 3071 3070 3068 3067 3066 3066 3065 3065 3064 3062 3060 3059 3057 3055 3054 3052 3051 3049 3048 3046 3045 3043
3065 3067 3068 3070 3071 3073 3074 3076 3077 3077 3077 3077 3078 3077 3077 3078 3077 3077 3076 3076 3075 3075 3075 3075 3076 3076 3076 3076 3076 3074 3073 3074 3075 3076 3077 3078 3079 3080 3082 3084 3086 3086 3086 3086 3086 3086 3086 3087 3088 3088 3088 3087 3086 3084 3082 3080 3078 3076 3074 3073 3071 3069 3068 3068 3068 3067 3065 3064 3063 3062 3061 3060 3059 3057 3055 3054 3052 3051 3049 3048 3047 3045 3044 3042 3040
3062 3064 3065 3067 3069 3070 3071 3072 3073 3073 3073 3073 3073 3073 3073 3073 3072 3072 3072 3072 3072 3072 3072 3072 3073 3073 3074 3075 3075 3074 3074 3074 3074 3074 3074 3076 3077 3078 3080 3081 3083 3083 3082 3083 3083 3083 3082 3083 3083 3084 3084 3083 3082 3081 3079 3077 3075 3074 3072 3071 3070 3067 3065 3063 3063 3063 3062 3061 3060 3059 3058 3057 3055 3054 3053 3051 3049 3048 3046 3045 3044 3042 3041 3040 3038
3060 3061 3062 3065 3066 3066 3067 3068 3068 3068 3069 3069 3069 3068 3068 3067 3067 3068 3068 3068 3068 3069 3069 3070 3070 3070 3071 3072 3072 3073 3072 3072 3072 3072 3072 3072 3073 3075 3076 3077 3079 3079 3079 3080 3081 3081 3081 3081 3081 3080 3079 3078 3078 3077 3075 3074 3072 3071 3070 3068 3067 3065 3063 3061 3060 3060 3059 3058 3057 3056 3055 3054 3052 3051 3049 3048 3046 3045 3044 3042 3041 3040 3038 3037 3035
3058 3058 3059 3061 3061 3062 3062 3063 3063 3064 3065 3065 3064 3064 3063 3063 3063 3063 3063 3064 3065 3066 3067 3067 3068 3068 3068 3069 3069 3070 3069 3068 3069 3070 3070 3069 3070 3071 3073 3075 3075 3076 3076 3077 3078 3079 3080 3079 3079 3078 3076 3075 3074 3073 3071 3070 3069 3068 3067 3065 3064 3063 3061 3059 3057 3056 3056 3056 3055 3054 3052 3051 3049 3048 3046 3045 3044 3042 3041 3040 3039 3037 3036 3034 3032
3057 3056 3057 3058 3058 3058 3059 3059 3059 3060 3060 3060 3060 3060 3060 3060 3060 3060 3060 3061 3062 3063 3063 3064 3065 3065 3066 3066 3067 3067 3067 3067 3067 3068 3069 3070 3070 3071 3071 3072 3073 3072 3073 3074 3075 3076 3076 3076 3076 3075 3073 3071 3070 3068 3067 3066 3066 3064 3063 3062 3061 3060 3059 3057 3055 3054 3053 3053 3052 3050 3049 3048 3046 3045 3044 3042 3041 3040 3039 3038 3036 3035 3033 3032 3030
3054 3054 3055 3055 3055 3055 3055 3056 3056 3056 3056 3057 3056 3056 3057 3057 3057 3057 3058 3059 3059 3059 3059 3060 3061 3062 3063 3063 3064 3065 3065 3066 3067 3068 3069 3070 3070 3070 3070 3070 3070 3070 3072 3073 3072 3072 3072 3072 3072 3071 3069 3067 3066 3064 3063 3062 3062 3061 3060 3059 3058 3056 3055 3053 3052 3051 3051 3050 3049 3047 3046 3045 3044 3042 3041 3040 3039 3038 3037 3036 3034 3033 3031 3029 3027
3051 3052 3052 3051 3051 3051 3051 3052 3053 3053 3054 3054 3054 3054 3054 3054 3054 3055 3056 3056 3056 3057 3057 3057 3058 3059 3060 3061 3061 3062 3063 3064 3065 3066 3067 3067 3067 3067 3067 3067 3068 3069 3070 3070 3069 3068 3068 3068 3068 3067 3066 3064 3062 3060 3059 3059 3058 3057 3056 3055 3054 3053 3052 3050 3050 3049 3048 3047 3046 3045 3043 3042 3041 3040 3039 3038 3037 3036 3035 3034 3032 3031 3029 3027 3025
3048 3049 3049 3048 3048 3047 3048 3049 3050 3051 3051 3051 3051 3051 3052 3051 3052 3053 3054 3054 3054 3055 3055 3056 3056 3057 3058 3059 3059 3060 3060 3061 3062 3063 3063 3063 3064 3064 3064 3065 3065 3066 3067 3066 3065 3065 3064 3064 3064 3063 3062 3060 3059 3057 3056 3055 3054 3054 3053 3051 3051 3050 3049 3048 3047 3046 3045 3044 3043 3042 3041 3040 3039 3038 3037 3036 3035 3034 3033 3032 3030 3029 3027 3026 3024
3045 3046 3046 3045 3045 3046 3046 3047 3047 3048 3048 3048 3048 3049 3049 3050 3050 3051 3051 3052 3053 3053 3054 3054 3055 3056 3056 3057 3057 3057 3058 3058 3059 3059 3060 3060 3060 3061 3061 3062 3063 3064 3064 3063 3062 3061 3060 3060 3059 3058 3057 3056 3055 3054 3053 3052 3050 3050 3049 3048 3047 3047 3046 3045 3045 3043 3042 3042 3041 3039 3038 3038 3037 3036 3035 3034 3033 3032 3031 3030 3028 3027 3025 3024 3022
3043 3043 3043 3043 3043 3044 3045 3045 3045 3045 3046 3045 3045 3045 3046 3047 3048 3049 3050 3051 3051 3052 3053 3053 3054 3054 3054 3054 3055 3055 3055 3055 3056 3056 3057 3057 3058 3059 3059 3060 3061 3061 3061 3060 3058 3057 3056 3055 3055 3054 3053 3053 3052 3051 3050 3049 3048 3047 3046 3045 3045 3044 3043 3043 3042 3041 3040 3039 3038 3037 3036 3035 3035 3034 3034 3033 3032 3030 3029 3028 3027 3026 3024 3022 3021
3041 3041 3041 3041 3041 3042 3043 3043 3043 3043 3044 3043 3043 3043 3044 3044 3045 3046 3048 3049 3049 3050 3051 3051 3051 3052 3052 3052 3052 3052 3052 3053 3053 3054 3054 3055 3056 3057 3057 3058 3058 3058 3057 3056 3055 3054 3053 3052 3051 3050 3049 3048 3048 3047 3046 3046 3045 3044 3044 3043 3042 3041 3040 3040 3039 3038 3037 3036 3035 3035 3034 3034 3033 3033 3032 3031 3030 3029 3028 3027 3026 3024 3023 3021 3019
3039 3040 3040 3040 3039 3040 3040 3041 3041 3041 3041 3041 3041 3042 3042 3042 3043 3044 3045 3046 3047 3047 3048 3048 3049 3049 3049 3049 3049 3049 3049 3050 3051 3051 3052 3053 3054 3055 3055 3055 3055 3054 3053 3052 3052 3051 3050 3049 3049 3047 3046 3045 3044 3044 3043 3042 3042 3041 3040 3040 3039 3038 3038 3037 3036 3035 3035 3034 3033 3032 3032 3032 3031 3031 3030 3030 3029 3028 3027 3026 3024 3023 3021 3020 3018
3038 3038 3038 3038 3038 3038 3038 3039 3039 3039 3039 3039 3040 3040 3040 3040 3041 3041 3042 3042 3043 3044 3045 3046 3046 3046 3046 3046 3046 3047 3047 3048 3049 3049 3050 3051 3051 3052 3052 3051 3051 3051 3050 3049 3048 3047 3047 3046 3046 3045 3044 3043 3042 3041 3040 3039 3039 3038 3037 3037 3036 3036 3035 3035 3034 3033 3032 3031 3031 3031 3030 3030 3030 3029 3029 3028 3027 3026 3025 3024 3023 3022 3020 3019 3017
3035 3035 3035 3035 3035 3036 3036 3036 3037 3037 3037 3038 3038 3038 3039 3039 3039 3040 3040 3041 3041 3042 3042 3042 3043 3044 3044 3044 3045 3045 3045 3046 3047 3047 3047 3047 3048 3048 3048 3048 3047 3047 3046 3045 3045 3044 3044 3043 3043 3042 3041 3040 3039 3039 3038 3037 3036 3035 3035 3034 3034 3033 3033 3032 3031 3030 3030 3029 3029 3029 3029 3029 3028 3028 3027 3027 3026 3025 3024 3023 3022 3021 3019 3018 3016
3031 3032 3032 3032 3032 3033 3034 3034 3034 3035 3035 3035 3036 3036 3037 3037 3038 3038 3039 3039 3039 3039 3039 3040 3041 3041 3042 3042 3043 3043 3043 3044 3044 3044 3043 3043 3044 3044 3044 3044 3044 3044 3043 3042 3041 3041 3041 3041 3039 3039 3038 3037 3036 3036 3035 3034 3033 3033 3033 3032 3032 3031 3030 3030 3029 3029 3028 3028 3027 3027 3027 3027 3027 3027 3026 3025 3025 3024 3023 3022 3021 3020 3018 3017 3016
3027 3028 3029 3029 3029 3030 3031 3031 3032 3032 3033 3033 3034 3034 3035 3035 3036 3036 3036 3037 3037 3037 3037 3038 3039 3039 3040 3040 3041 3041 3041 3041 3040 3040 3040 3040 3039 3039 3040 3040 3040 3040 3040 3039 3038 3038 3038 3037 3036 3035 3035 3034 3034 3033 3032 3032 3031 3031 3030 3030 3030 3029 3028 3028 3027 3027 3026 3026 3026 3026 3026 3026 3026 3025 3025 3024 3023 3022 3021 3021 3020 3019 3018 3016 3015
3024 3025 3026 3027 3027 3028 3028 3029 3030 3030 3030 3031 3031 3031 3032 3033 3033 3034 3034 3034 3035 3035 3035 3036 3037 3037 3038 3038 3038 3038 3038 3038 3038 3037 3037 3037 3037 3036 3036 3036 3037 3037 3037 3036 3036 3036 3036 3035 3034 3033 3032 3031 3031 3030 3030 3029 3029 3029 3029 3028 3027 3026 3026 3026 3025 3025 3025 3025 3025 3025 3025 3024 3024 3024 3023 3023 3022 3021 3020 3019 3018 3018 3017 3015 3014
3022 3023 3024 3024 3025 3026 3026 3027 3027 3028 3028 3028 3029 3029 3030 3030 3031 3031 3032 3032 3032 3032 3033 3034 3034 3035 3035 3035 3035 3035 3035 3035 3035 3035 3035 3036 3035 3034 3033 3034 3035 3035 3034 3034 3033 3033 3033 3033 3032 3031 3031 3030 3029 3028 3028 3027 3027 3027 3026 3026 3025 3024 3024 3024 3024 3023 3023 3023 3023 3023 3023 3023 3023 3022 3022 3021 3021 3020 3019 3018 3017 3017 3016 3015 3013
3021 3021 3022 3022 3023 3024 3024 3025 3025 3025 3026 3026 3026 3027 3027 3028 3028 3029 3029 3029 3030 3030 3031 3032 3032 3032 3033 3033 3033 3033 3033 3033 3033 3032 3033 3033 3033 3033 3032 3032 3033 3033 3033 3032 3031 3030 3030 3030 3030 3029 3029 3028 3027 3026 3025 3025 3024 3024 3024 3023 3022 3022 3022 3022 3022 3022 3021 3021 3022 3022 3022 3022 3021 3021 3020 3020 3019 3018 3018 3017 3016 3015 3014 3013 3012
3019 3019 3020 3020 3021 3022 3022 3023 3023 3024 3024 3024 3025 3025 3025 3025 3026 3026 3027 3027 3027 3028 3029 3030 3030 3031 3031 3031 3031 3031 3031 3031 3031 3030 3030 3031 3031 3031 3030 3030 3030 3030 3030 3030 3028 3027 3028 3028 3028 3027 3027 3026 3025 3024 3023 3022 3022 3022 3022 3021 3021 3020 3020 3020 3020 3020 3020 3020 3020 3020 3020 3020 3020 3019 3019 3018 3018 3017 3016 3015 3015 3014 3013 3012 3011
3017 3018 3018 3019 3020 3020 3021 3021 3021 3022 3022 3022 3022 3023 3023 3023 3024 3024 3024 3025 3026 3026 3027 3028 3028 3028 3028 3028 3028 3028 3028 3029 3029 3029 3028 3028 3029 3029 3028 3028 3027 3027 3027 3027 3027 3026 3025 3025 3025 3025 3025 3024 3024 3022 3021 3020 3019 3019 3019 3019 3019 3018 3018 3018 3018 3018 3017 3017 3018 3018 3018 3018 3018 3018 3017 3017 3016 3015 3015 3014 3013 3013 3012 3011 3010